Location: Czekan�w
(50.3488°N, 18.7344°E)
Time: 01:54:10
(UTC+00:00)

Meteor 1-27 - Pass Details

Date: 17 February 2020
Orbit: 838 x 892 km, 81.3° (Epoch: 03 April)

Event Time Altitude Azimuth Distance (km) Brightness Sun altitude
Rises 03:45:05 0° 182° (S) 3,388 7.3 -21.1°
Reaches altitude 10° 03:47:30 10° 180° (S) 2,454 6.5 -20.8°
Maximum altitude 03:53:00 70° 98° (E) 895 4.5 -19.9°
Drops below altitude 10° 03:58:33 10° 16° (NNE) 2,468 6.9 -19.0°
Sets 04:00:59 0° 14° (NNE) 3,409 7.6 -18.6°
